Location: Charbonni�res
(45.9952°N, 2.9982°E)
Time: 17:40:28
(UTC+00:00)

Cosmos 1862 - Pass Details

Date: 29 November 2020
Orbit: 537 x 556 km, 82.5° (Epoch: 17 January)

Event Time Altitude Azimuth Distance (km) Brightness Sun altitude
Rises 05:19:44 0° 183° (S) 2,724 7.0 -18.1°
Reaches altitude 10° 05:21:53 10° 181° (S) 1,836 6.1 -17.8°
Maximum altitude 05:25:55 74° 97° (E) 586 3.5 -17.1°
Drops below altitude 10° 05:29:59 10° 12° (NNE) 1,853 6.0 -16.4°
Sets 05:32:10 0° 11° (N) 2,752 6.9 -16.0°
